Location: La Ronge
(55.1000°N, 105.3000°W)
Time: 11:48:21
(UTC-06:00)

Daily predictions for brighter satellites

Satellite Brightness Start Highest point End
(mag) Time Altitude Azimuth Time Altitude Azimuth Time Altitude Azimuth
BREEZE-M DEB (TANK) 4.5 20:58:19 10° SW 21:01:33 32° SSE 21:09:24 10° ESE
USA 234 3.8 21:00:59 10° SE 21:07:21 52° SW 21:13:44 10° WNW
Cosmos 2242 Rocket 3.9 21:04:13 10° SSW 21:08:42 74° WNW 21:13:10 10° N
ATLAS 5 CENTAUR R/B 3.4 21:03:19 10° WNW 21:08:44 41° SW 21:14:38 10° SSE
Cosmos 1844 4.0 21:04:36 10° NNW 21:10:17 62° NE 21:15:52 10° SE
H-2A R/B 2.9 21:09:59 10° ESE 21:14:21 32° ENE 21:18:43 10° N
Meteor 1-14 Rocket 4.3 21:09:48 10° NNW 21:15:29 79° ENE 21:21:16 10° SSE
Cosmos 2221 Rocket 4.4 21:11:39 10° SSE 21:15:34 32° E 21:19:32 10° NNE
MOS 1-B Rocket 4.2 21:10:43 10° SE 21:16:14 51° ENE 21:21:40 10° N
Meteor 1-25 Rocket 4.3 21:10:42 10° N 21:16:18 63° ENE 21:21:49 10° SSE
YAOGAN 11 4.4 21:12:09 10° SE 21:16:23 53° ENE 21:20:36 10° N
NOAA 11 4.3 21:12:17 10° SSE 21:17:43 65° ENE 21:23:10 10° NNW
Cosmos 1606 4.5 21:17:37 10° ESE 21:20:00 16° E 21:22:22 10° NE
Cosmos 2322 4.1 21:16:22 10° S 21:21:44 43° ESE 21:27:06 10° NE
Cosmos 2279 Rocket 4.2 21:17:42 10° SSW 21:23:58 82° WNW 21:30:15 10° N
ARGOS 3.4 21:19:48 10° SE 21:25:03 58° ENE 21:30:21 10° N
Meteor 1-20 Rocket 4.3 21:20:16 10° N 21:25:49 67° ENE 21:31:27 10° SSE
Intercosmos 25 Rocket 4.3 21:22:14 10° SSW 21:25:52 61° WNW 21:31:26 10° N
SL-16 R/B 2.4 21:21:11 10° SW 21:26:53 82° NW 21:32:37 10° NNE
ERS-1 Rocket 3.1 21:23:50 10° SSE 21:28:52 83° WSW 21:33:56 10° NNW
SeaSat 1 2.6 21:25:01 10° SE 21:29:55 69° NE 21:34:52 10° NNW
Resurs 01 Rocket 4.3 21:28:09 10° SW 21:31:21 19° W 21:34:34 10° NW
CENTAUR R/B 3.6 21:25:24 10° W 21:31:54 54° NNW 21:39:20 10° NE
Cosmos 1908 Rocket 4.1 21:29:19 10° NNW 21:33:36 59° W 21:37:52 10° S
H-2A R/B 3.3 21:31:05 10° ESE 21:34:49 29° ENE 21:38:39 10° N
YAOGAN 6 3.2 21:34:17 10° S 21:37:51 56° W 21:41:24 10° NNW
Cosmos 1844 Rocket 2.8 21:33:06 10° NW 21:38:42 78° WSW 21:44:16 10° SSE
Cosmos 2278 Rocket 2.5 21:34:36 10° NNW 21:40:15 60° NE 21:45:29 12° SE
Sich 1 Rocket 4.4 21:35:57 10° NNW 21:40:19 53° W 21:44:42 10° S
Cosmos 2237 Rocket 3.8 21:40:20 11° SE 21:43:05 15° E 21:46:11 10° ENE
SL-08 RB Rocket 3.8 21:39:27 10° SSE 21:43:57 62° ENE 21:48:27 10° N
SPOT 5 2.7 21:39:33 10° SSE 21:44:17 78° ENE 21:48:48 10° NNW
Cosmos 1933 4.3 21:41:49 10° SSW 21:45:45 51° WNW 21:49:43 10° N
Cosmos 2333 Rocket 3.5 21:41:58 10° SSE 21:46:05 21° E 21:50:16 10° NE
Iridium 4 Rocket 4.5 21:43:54 10° NNE 21:47:11 22° ENE 21:49:54 12° ESE
Cosmos 1782 Rocket 3.9 21:43:53 10° NNW 21:48:15 69° W 21:52:36 10° S
CZ-4C R/B 2.9 21:43:15 10° NW 21:50:01 89° NE 21:57:01 13° SE
NOSS 3-1 (C) 4.4 21:45:26 10° SSE 21:50:06 24° ESE 21:55:10 10° ENE
MetOp-A 4.3 21:46:40 10° SSE 21:52:02 76° WSW 21:57:26 10° NNW
Cosmos 1898 Rocket 4.1 21:47:01 10° NNW 21:52:03 47° NE 21:56:24 14° SE
USA 229 DEB 3.8 21:49:21 10° SSW 21:55:56 52° SE 22:02:41 10° NE
USA 229 3.8 21:49:28 10° SSW 21:56:04 52° SE 22:02:48 10° NE
ASTEX 1 4.1 21:54:58 14° SE 21:58:52 39° ENE 22:03:29 10° N
Meteor 2-10 Rocket 4.0 21:54:14 10° SSW 22:00:02 74° WNW 22:05:47 10° NNE
USA 129 3.5 21:58:48 10° NE 21:59:58 17° E 21:59:58 17° E
SPOT 1/Viking Rocket 3.6 21:57:12 12° SSE 22:02:08 81° ENE 22:07:22 10° NNW
Okean 2 Rocket 3.4 21:59:00 10° NNW 22:03:31 67° W 22:07:59 10° S
Okean 1-7 3.0 21:59:17 10° S 22:03:41 76° E 22:08:07 10° NNE
USA 245 4.0 21:59:10 10° SSE 22:04:33 78° WSW 22:08:55 10° NNW
NOSS 3-1 (A) 4.5 22:02:34 11° SSE 22:06:50 24° ESE 22:11:52 10° ENE
Cosmos 2219 Rocket 2.9 22:02:01 10° S 22:06:58 33° ESE 22:11:57 10° NE
Cosmos 1782 2.9 22:05:57 11° S 22:09:43 57° E 22:13:40 10° NNE
Cosmos 1633 2.6 22:07:19 10° N 22:10:59 69° ENE 22:13:34 18° SSE
Cosmos 2084 3.8 22:07:31 10° WNW 22:11:12 47° SW 22:13:51 18° SSE
USA 267 3.2 22:05:09 10° ENE 22:11:45 82° SSE 22:18:20 10° WSW
Landsat 7 3.9 22:08:19 16° SSE 22:12:07 69° ENE 22:16:53 10° NNW
Cosmos 1602 3.8 22:11:46 10° N 22:15:36 63° ENE 22:18:09 20° SSE
S3M 4.4 22:13:06 15° SSE 22:17:52 44° E 22:23:44 10° NNE
Nimbus 7 Rocket 4.5 22:15:09 10° NNE 22:21:02 61° ESE 22:26:58 10° S
Cosmos 1346 Rocket 3.5 22:22:04 21° SSE 22:24:08 37° E 22:27:51 10° NNE
Terra 1.9 22:23:54 19° SSE 22:27:15 68° ENE 22:32:00 10° NNW
Abrixas rocket 3.8 22:24:51 10° WSW 22:27:19 20° SSW 22:27:47 19° S
ATLAS 3B R/B 3.2 22:21:43 10° NW 22:28:41 58° NNE 22:35:08 11° ESE
PSLV R/B 3.3 22:28:31 30° SE 22:29:34 48° ENE 22:32:18 10° N
deb Chang Zheng 4 4.4 22:25:44 10° NNE 22:29:44 33° E 22:31:44 22° SE
Meteor 1-27 Rocket 4.0 22:29:00 17° SSE 22:33:10 51° E 22:38:32 10° NNE
Cosmos 2369 Rocket 3.9 22:30:02 10° NNW 22:34:42 26° NNE 22:39:23 10° E
CZ-4B R/B 4.4 22:32:12 10° NE 22:36:15 27° E 22:38:04 21° SE
Cosmos 2297 3.8 22:30:47 10° NNW 22:36:32 71° NE 22:40:26 21° SE
Cosmos 2151 Rocket 4.0 22:33:31 10° NNW 22:37:55 61° W 22:41:23 16° S
Cosmos 2322 Rocket 4.0 22:35:28 10° WSW 22:40:36 35° NW 22:45:47 10° NNE
Cosmos 2237 4.3 22:35:03 10° SW 22:40:48 85° NW 22:46:35 10° NNE
Cosmos 1943 Rocket 4.3 22:37:31 10° NNW 22:41:52 22° NNE 22:46:13 10° ENE
CARTOSAT-1 3.5 22:40:03 23° SSE 22:42:44 88° ENE 22:47:06 10° NNW
Cosmos 1745 Rocket 4.0 22:36:27 10° N 22:42:49 86° E 22:47:32 19° SSE
Spot 4 4.1 22:41:33 23° SE 22:44:23 58° ENE 22:49:06 10° N
Cosmos 2360 Rocket 3.0 22:42:12 10° SW 22:47:46 55° NW 22:53:23 10° NNE
Cosmos 2292 Rocket 3.3 22:45:21 10° N 22:48:14 40° ENE 22:48:58 33° ESE
IGS 5A 3.4 22:47:17 25° SSE 22:49:40 86° WSW 22:53:51 10° NNW
COSMOS 2428 2.7 22:44:29 10° SSW 22:50:12 90° WNW 22:55:59 10° NE
Meteor 1-11 Rocket 3.9 22:46:38 10° NNW 22:52:09 69° W 22:56:10 19° S
CZ-4 R/B 4.4 22:47:46 10° NNE 22:52:19 40° E 22:54:28 26° SSE
Okean 1 Rocket 3.0 22:48:13 10° N 22:52:41 83° E 22:55:07 27° SSE
Cosmos 2298 Rocket 4.1 22:47:23 10° NNW 22:52:46 82° WSW 22:55:58 25° SSE
USA 238 DEB 4.2 22:45:57 10° NW 22:52:57 61° NNE 22:59:42 11° ESE
USA 238 4.2 22:46:03 10° NW 22:53:03 61° NNE 22:59:49 11° ESE
H-2A R/B 2.6 22:49:47 15° S 22:53:40 49° W 22:58:28 10° NNW
Cosmos 1455 Rocket 4.5 22:51:06 10° N 22:54:57 27° ENE 22:57:04 19° ESE
Aureole 2 Rocket 2.8 22:55:24 31° E 22:55:24 31° E 22:57:30 10° NE
Meteor 1-10 Rocket 4.4 22:49:19 10° SSW 22:55:14 78° WNW 23:01:05 10° NNE
Cosmos 1606 3.1 22:52:08 13° SSW 22:55:22 60° WNW 22:59:08 10° N
Cosmos 1980 3.9 22:55:18 19° S 22:59:06 49° ESE 23:04:34 10° NE
Cosmos 1674 Rocket 3.4 22:57:40 25° S 23:00:08 74° E 23:04:29 10° NNE
DMSP B5D2-2 4.1 22:55:03 10° NNE 23:00:20 71° ESE 23:04:00 20° S
NOSS 0 Rocket 4.0 23:00:11 14° SSW 23:05:23 58° ESE 23:11:25 10° NE
SL-16 R/B 3.3 23:04:06 24° SE 23:05:37 27° ESE 23:10:16 10° NE
Cosmos 1536 2.9 23:03:07 10° NNW 23:07:11 72° W 23:09:05 30° S
SeaSat 1 4.0 23:04:32 14° SSW 23:07:51 27° WSW 23:12:03 10° NW
Cosmos 1570 Rocket 4.0 23:03:09 10° SSW 23:08:25 87° ESE 23:13:46 10° NNE
Cosmos 1937 Rocket 3.6 23:03:54 10° NNW 23:09:10 73° WSW 23:11:58 28° SSE
H-2A R/B 2.8 23:08:08 21° SSW 23:10:40 46° W 23:14:57 10° NNW
SL-16 R/B 4.5 23:07:02 10° W 23:11:50 27° NNW 23:16:40 10° NNE
DELTA 2 DEB (DPAF) 4.1 23:09:54 31° SSE 23:12:04 89° ENE 23:16:36 10° NNW
Cosmos 1340 3.8 23:14:53 26° ESE 23:15:18 27° E 23:18:32 10° NE
SL-19 R/B 4.4 23:11:11 10° NNE 23:17:21 78° ESE 23:21:27 21° S
Cosmos 990 Rocket 4.0 23:12:42 10° NNW 23:17:51 73° WSW 23:20:23 30° S
Cosmos 2208 Rocket 4.0 23:13:58 11° SSW 23:19:11 86° WNW 23:24:31 10° NNE
Cosmos 1500 4.0 23:15:50 10° N 23:19:32 40° ENE 23:20:41 31° ESE
CENTAUR R/B 4.0 23:17:13 10° WNW 23:23:57 45° N 23:31:30 10° ENE
Cosmos 2278 Rocket 3.3 23:19:04 10° NW 23:24:06 34° WSW 23:27:20 19° SSW
CZ-2C R/B 4.1 23:20:01 10° NE 23:24:15 22° E 23:25:58 19° ESE
CZ-4C R/B 3.1 23:23:25 41° S 23:24:35 75° WSW 23:28:11 10° NNW
Cosmos 1975 Rocket 3.5 23:23:12 35° SE 23:24:35 47° E 23:28:54 10° NNE
USA 129 4.4 23:23:25 10° NNW 23:24:41 15° WNW 23:25:13 14° W
Cosmos 332 Rocket 4.4 23:24:24 32° SE 23:25:36 37° ESE 23:30:02 10° NE
Cosmos 2237 Rocket 2.2 23:22:05 20° SSW 23:26:08 68° ESE 23:31:49 10° NE
ALOS 2 3.6 23:25:29 25° ESE 23:27:21 37° ENE 23:31:25 10° N
Iridium 4 Rocket 3.6 23:23:27 10° NNW 23:27:30 49° W 23:29:42 24° SSW
Cosmos 2333 Rocket 2.2 23:23:51 10° SSW 23:29:38 88° SE 23:35:28 10° NE
Cosmos 1553 Rocket 4.3 23:26:20 14° SSW 23:31:48 66° WNW 23:37:58 10° N
Cosmos 1898 Rocket 4.5 23:29:19 10° NW 23:34:04 37° WSW 23:36:41 22° SSW
CZ-4C R/B 3.8 23:32:05 10° WNW 23:38:14 34° WSW 23:42:12 21° SSW
Cosmos 2315 Rocket 4.0 23:36:35 30° SSE 23:39:44 65° E 23:45:56 10° NNE
NOSS 3-1 (C) 3.4 23:33:58 10° SW 23:40:00 84° SE 23:46:57 10° NE
Cosmos 1125 Rocket 3.6 23:37:57 10° NNW 23:43:18 75° ENE 23:45:45 33° SE
Cosmos 1763 Rocket 3.8 23:41:40 35° SSE 23:43:23 47° ESE 23:48:27 10° NE
Cosmos 372 Rocket 4.2 23:39:13 10° NNW 23:44:29 64° ENE 23:46:59 30° SE
Meteor 1-12 Rocket 4.3 23:39:46 10° NNW 23:45:42 80° ENE 23:48:34 33° SSE
COSMOS 2455 4.3 23:40:56 10° NW 23:46:28 36° NNE 23:52:00 10° E
SL-24 DEB 4.2 23:44:43 36° S 23:46:36 78° W 23:51:16 10° N
USA 229 DEB 4.2 23:40:03 10° WSW 23:46:54 64° NNW 23:53:57 10° NE
USA 229 4.2 23:40:09 10° WSW 23:47:01 64° NNW 23:54:03 10° NE
Cosmos 2219 Rocket 2.7 23:45:06 10° SW 23:50:39 61° NW 23:56:17 10° NNE
CZ-4C R/B 4.5 23:55:56 25° E 23:56:50 28° ENE 00:00:00 10° N
